Weather History for KPAE - December, 2012

Change the Weather History Date:

Wednesday, December 26, 2012

  Actual Average Record
Temperature  
Mean Temperature 41 °F -  
Max Temperature 43 °F 45 °F 62 °F (1980)
Min Temperature 39 °F 35 °F 20 °F (1962)
Degree Days  
Heating Degree Days 24    
Moisture  
Dew Point 36 °F    
Average Humidity 85    
Maximum Humidity 92    
Minimum Humidity 77    
Precipitation  
Precipitation 0.27 in - - ()
Sea Level Pressure  
Sea Level Pressure 29.77 in    
Wind  
Wind Speed 7 mph (SSE)    
Max Wind Speed 17 mph    
Max Gust Speed 24 mph    
Visibility 9 miles    
Events Rain    
Averages and records for this station are not official NWS values.
T = Trace of Precipitation, MM = Missing Value Source: NWS Daily Summary

Daily Weather History Graph

Daily Weather History Graph

Search for Another Location

Airport or City:

Trip Planner

Search our weather history database for the weather conditions in past years. The results will help you decide how hot, cold, wet, or windy it might be!

Date:

Astronomy

Dec. 26, 2012 Rise Set
Actual Time 7:57 AM PST 4:22 PM PST
Civil Twilight 7:21 AM PST 4:58 PM PST
Nautical Twilight 6:42 AM PST 5:38 PM PST
Astronomical Twilight 6:04 AM PST 6:15 PM PST
Moon 3:22 PM PST (12/26) 6:23 AM PST (12/26)
Length of Visible Light 9h 36m
Length of Day
8h 24m
Waxing Gibbous, 98% of the Moon is Illuminated
Dec 26
Waxing Gibbous
Dec 28
Full
Jan 4
Last Quarter
Jan 11
New
Jan 18
First Quarter

Hourly Weather History & Observations

Time (PST) Temp. Windchill Dew Point Humidity Pressure Visibility Wind Dir Wind Speed Gust Speed Precip Events Conditions
12:49 AM 39.2 °F 37.0 °F 33.8 °F 81% 29.69 in 10.0 mi Variable 3.5 mph - 0.00 in   Overcast
12:53 AM 39.9 °F 35.8 °F 33.1 °F 77% 29.71 in 10.0 mi ESE 5.8 mph - 0.00 in   Overcast
1:51 AM 39.2 °F 37.0 °F 33.8 °F 81% 29.71 in 10.0 mi Variable 3.5 mph - 0.00 in Rain Light Rain
1:53 AM 39.9 °F 37.8 °F 33.1 °F 77% 29.73 in 10.0 mi SSE 3.5 mph - 0.00 in Rain Light Rain
2:19 AM 39.2 °F 35.9 °F 33.8 °F 81% 29.70 in 7.0 mi ESE 4.6 mph - 0.01 in Rain Light Rain
2:53 AM 39.0 °F 34.8 °F 34.0 °F 82% 29.71 in 10.0 mi ESE 5.8 mph - 0.01 in   Overcast
3:09 AM 39.2 °F 37.0 °F 33.8 °F 81% 29.70 in 10.0 mi SE 3.5 mph - N/A   Overcast
3:53 AM 39.9 °F 36.7 °F 33.1 °F 77% 29.71 in 10.0 mi SE 4.6 mph - 0.01 in Rain Light Rain
4:38 AM 39.2 °F 32.5 °F 33.8 °F 81% 29.70 in 10.0 mi SSE 10.4 mph - 0.00 in Rain Light Rain
4:53 AM 39.0 °F 32.8 °F 34.0 °F 82% 29.72 in 10.0 mi SSE 9.2 mph - 0.00 in Rain Light Rain
5:53 AM 39.0 °F 34.0 °F 35.1 °F 86% 29.73 in 10.0 mi Variable 6.9 mph 17.3 mph 0.01 in Rain Light Rain
6:53 AM 39.0 °F 31.8 °F 36.0 °F 89% 29.73 in 10.0 mi SSE 11.5 mph 18.4 mph 0.00 in Rain Light Rain
7:03 AM 39.2 °F 32.0 °F 35.6 °F 87% 29.72 in 10.0 mi SSE 11.5 mph 19.6 mph 0.00 in   Overcast
7:53 AM 39.0 °F 36.8 °F 35.1 °F 86% 29.75 in 10.0 mi Variable 3.5 mph - 0.00 in   Overcast
8:53 AM 39.0 °F 35.7 °F 35.1 °F 86% 29.76 in 10.0 mi Variable 4.6 mph - N/A   Overcast
9:33 AM 39.2 °F 35.9 °F 35.6 °F 87% 29.76 in 10.0 mi SE 4.6 mph - N/A   Overcast
9:42 AM 39.2 °F 37.0 °F 35.6 °F 87% 29.76 in 10.0 mi Variable 3.5 mph - N/A   Overcast
9:53 AM 39.9 °F 36.7 °F 36.0 °F 86% 29.78 in 10.0 mi Variable 4.6 mph - N/A   Overcast
10:53 AM 41.0 °F 34.7 °F 35.1 °F 79% 29.78 in 10.0 mi SSE 10.4 mph 16.1 mph N/A   Overcast
11:50 AM 41.0 °F 36.4 °F 37.4 °F 87% 29.77 in 2.0 mi SSE 6.9 mph - 0.01 in Rain Light Rain
11:53 AM 41.0 °F 34.7 °F 37.0 °F 86% 29.78 in 2.0 mi SSE 10.4 mph 16.1 mph 0.01 in Rain Light Rain
12:00 PM 41.0 °F 37.1 °F 37.4 °F 87% 29.77 in 4.0 mi Variable 5.8 mph 16.1 mph 0.00 in   Overcast
12:53 PM 41.0 °F 36.4 °F 37.0 °F 86% 29.78 in 10.0 mi Variable 6.9 mph - 0.00 in   Overcast
1:03 PM 41.0 °F 34.7 °F 37.4 °F 87% 29.77 in 10.0 mi SSE 10.4 mph - 0.00 in Rain Light Rain
1:53 PM 42.1 °F 36.6 °F 39.0 °F 89% 29.78 in 9.0 mi SSE 9.2 mph - 0.00 in Rain Light Rain
2:53 PM 42.1 °F 39.2 °F 39.0 °F 89% 29.78 in 9.0 mi Variable 4.6 mph - 0.01 in Rain Light Rain
3:53 PM 42.1 °F 36.6 °F 39.0 °F 89% 29.79 in 10.0 mi SSE 9.2 mph - 0.01 in   Overcast
4:53 PM 43.0 °F 37.2 °F 39.0 °F 86% 29.80 in 9.0 mi South 10.4 mph 20.7 mph 0.00 in Rain Light Rain
5:53 PM 42.1 °F 34.5 °F 39.0 °F 89% 29.80 in 10.0 mi SSE 15.0 mph - 0.01 in Rain Light Rain
6:53 PM 42.1 °F 33.9 °F 39.0 °F 89% 29.80 in 9.0 mi SSE 17.3 mph 24.2 mph 0.01 in Rain Light Rain
7:53 PM 42.1 °F 34.2 °F 37.9 °F 85% 29.82 in 10.0 mi SSE 16.1 mph 23.0 mph 0.00 in   Overcast
8:53 PM 42.1 °F 35.2 °F 39.0 °F 89% 29.84 in 9.0 mi South 12.7 mph - 0.00 in Rain Light Rain
9:53 PM 42.1 °F 36.1 °F 39.0 °F 89% 29.87 in 3.0 mi South 10.4 mph - 0.08 in Rain Light Rain
10:53 PM 42.1 °F 36.6 °F 39.9 °F 92% 29.89 in 5.0 mi SSW 9.2 mph - 0.06 in Rain Light Rain
11:53 PM 42.1 °F 37.7 °F 39.9 °F 92% 29.91 in 5.0 mi South 6.9 mph - 0.05 in Rain Light Rain